Location: Gaoulac�h
(48.2454°N, 4.5286°W)
Time: 03:17:31
(UTC+00:00)

Daily predictions for brighter satellites

Satellite Brightness Start Highest point End
(mag) Time Altitude Azimuth Time Altitude Azimuth Time Altitude Azimuth
ATLAS 3B R/B 4.4 03:36:59 24° NE 03:36:59 24° NE 03:41:18 10° ENE
CENTAUR R/B 4.0 03:57:40 39° NNE 03:58:37 40° NNE 04:06:32 10° E
USA 215 4.2 03:52:30 10° E 03:57:09 43° ENE 03:57:09 43° ENE
Cosmos 1980 Rocket 4.3 04:05:29 21° ESE 04:06:47 22° E 04:11:04 10° NE
Cosmos 1697 Rocket 4.1 04:15:14 33° ENE 04:15:14 33° ENE 04:18:43 10° NE
USA 238 DEB 3.9 04:29:55 75° ENE 04:29:55 75° ENE 04:37:06 10° SE
USA 238 3.9 04:30:00 74° ENE 04:30:00 74° ENE 04:37:12 10° SE
Lacrosse 5 rocket 3.8 04:44:11 20° NE 04:44:11 20° NE 04:45:52 10° NE
COSMOS 2455 3.7 04:51:25 28° S 04:54:10 46° ESE 04:59:54 10° NE
Cosmos 1953 4.3 05:02:56 25° NE 05:02:56 25° NE 05:04:51 10° NNE
Cosmos 2263 Rocket 3.1 05:00:32 29° N 05:02:53 45° NE 05:08:17 10° SE
Meteor 2-17 Rocket 4.5 05:01:56 10° N 05:08:02 75° ENE 05:14:05 10° SSE
CZ-2C R/B 4.1 05:05:18 10° N 05:07:12 24° N 05:07:12 24° N
Cosmos 2360 4.2 05:10:41 61° S 05:11:44 81° ESE 05:17:30 10° NNE
Cosmos 2344 3.5 05:09:57 47° SW 05:12:29 87° NW 05:20:52 10° NE
Cosmos 2327 Rocket 4.4 05:19:21 61° WSW 05:19:21 61° WSW 05:24:57 10° S
Cosmos 2341 Rocket 4.2 05:12:58 10° N 05:19:15 70° E 05:25:26 10° SSE
Nadezhda 1 Rocket 3.7 05:18:05 36° SSW 05:20:43 75° W 05:26:50 10° N
STARLINK-54 4.4 05:21:11 45° SE 05:21:11 45° SE 05:24:48 10° ENE
NOSS 3-2 (C) 3.9 05:18:50 38° NW 05:22:11 90° SW 05:30:35 10° SE
STARLINK-77 4.5 05:22:31 44° SE 05:22:31 44° SE 05:26:15 10° ENE
STARLINK-25 4.4 05:24:08 45° SE 05:24:08 45° SE 05:27:57 10° ENE
SKYMED 2 3.6 05:20:16 10° SSE 05:24:15 74° SE 05:24:15 74° SE
NOSS 2-2 (C) 4.2 05:25:57 41° NNE 05:25:57 41° NNE 05:28:51 10° NE
Cosmos 2278 3.6 05:24:06 64° WSW 05:24:54 76° WNW 05:30:39 10° NNE
STARLINK-71 4.2 05:26:00 50° SE 05:26:00 50° SE 05:29:49 10° ENE
Cosmos 1758 Rocket 3.5 05:27:04 80° SE 05:27:04 80° SE 05:31:17 10° S
STARLINK-79 4.3 05:27:16 47° SSE 05:27:19 47° SE 05:31:13 10° ENE
Cosmos 1538 Rocket 3.9 05:26:36 62° SW 05:27:28 80° WNW 05:32:48 10° NNE
ATLAS 3B R/B 3.0 05:24:15 29° NNW 05:27:49 61° NE 05:34:38 10° SE
STARLINK-78 4.2 05:28:54 49° SSE 05:29:01 49° SE 05:32:55 10° ENE
STARLINK-57 4.1 05:30:39 52° SSE 05:30:46 52° SE 05:34:42 10° ENE
Cosmos 1726 3.0 05:27:17 10° S 05:30:49 47° E 05:34:21 10° NNE
USA 32 4.4 05:25:48 10° N 05:31:02 64° E 05:36:14 10° SSE
STARLINK-49 4.1 05:32:03 50° SSE 05:32:17 51° SE 05:36:13 10° ENE
STARLINK-27 4.0 05:33:40 51° SSE 05:33:57 53° SE 05:37:54 10° ENE
Cosmos 2369 3.9 05:34:44 50° NW 05:34:44 50° NW 05:40:17 10° NNE
NOSS 2-2 (E) 4.2 05:35:47 39° N 05:35:47 39° N 05:38:57 10° NE
STARLINK-74 4.0 05:35:15 52° SSE 05:35:36 54° SE 05:39:32 10° ENE
SL-16 R/B 3.8 05:31:39 10° S 05:36:43 35° ESE 05:41:48 10° NE
STARLINK-39 4.0 05:36:50 52° S 05:37:15 56° SE 05:41:12 10° ENE
NOSS 3-4 (A) 4.3 05:31:48 10° SSW 05:37:29 47° ESE 05:43:30 10° NE
NOSS 3-4 (C) 4.4 05:31:55 10° SSW 05:37:35 47° ESE 05:43:36 10° NE
STARLINK 3.9 05:38:28 53° S 05:38:55 57° SSE 05:42:54 10° ENE
Cosmos 972 Rocket 4.2 05:35:43 23° NNW 05:39:41 73° WSW 05:45:15 10° S
FALCON 9 DEB 4.0 05:40:35 44° NE 05:40:35 44° NE 05:43:37 10° E
STARLINK-69 3.8 05:40:18 57° S 05:40:44 62° SSE 05:44:44 10° ENE
USA 215 3.2 05:35:07 10° SE 05:41:40 75° SW 05:44:30 37° WNW
STARLINK-21 3.9 05:41:40 53° S 05:42:15 60° SSE 05:46:14 10° ENE
Timation 1 Rocket 4.3 05:39:09 27° NNW 05:42:41 88° ENE 05:48:42 10° SSE
FENGYUN 3A 3.8 05:37:21 10° NNE 05:42:47 74° ESE 05:48:11 10° S
NOSS 3-2 (A) 4.1 05:39:51 37° WNW 05:42:47 55° WSW 05:50:54 10° SSE
Okean O Rocket 2.9 05:38:36 10° NNE 05:42:52 42° E 05:47:03 10° S
STARLINK-43 4.3 05:44:11 38° NNE 05:44:11 38° NNE 05:47:20 10° ENE
STARLINK-45 3.7 05:43:35 58° SSW 05:44:07 67° SSE 05:48:08 10° ENE
STARLINK-26 3.6 05:44:58 54° NNE 05:44:58 54° NNE 05:47:51 10° ENE
BREEZE M DEB (TANK) 3.4 05:45:10 36° SSE 05:45:34 38° SE 05:49:50 10° ENE
BREEZE M DEB (TANK) 4.4 05:36:21 30° W 05:45:38 85° N 05:50:46 10° E
STARLINK-70 3.7 05:45:00 55° SSW 05:45:38 66° SSE 05:49:39 10° ENE
STARLINK-76 3.8 05:46:26 52° SSW 05:47:12 65° SSE 05:51:12 10° ENE
CZ-4B R/B 4.2 05:42:00 10° NNE 05:47:24 48° E 05:52:38 10° S
STARLINK-61 3.3 05:47:42 80° W 05:47:54 87° NNW 05:51:52 10° ENE
Cosmos 2218 Rocket 4.3 05:42:14 10° N 05:48:40 72° E 05:54:59 10° SSE
STARLINK 3.7 05:48:03 51° SSW 05:48:52 67° SSE 05:52:52 10° ENE
STARLINK-75 3.4 05:48:31 67° SSW 05:48:55 76° SSE 05:52:45 10° ENE
ADEOS Rocket 3.7 05:43:43 10° SE 05:48:57 49° ENE 05:54:28 10° N
CENTAUR R/B 3.1 05:44:52 25° NW 05:50:10 82° SW 05:58:53 10° SSE
Abrixas rocket 3.4 05:51:04 32° SSE 05:51:04 32° SSE 05:53:06 10° SE
Cosmos 1980 Rocket 2.1 05:47:20 29° SW 05:50:16 66° WNW 05:55:57 10° NNE
STARLINK-32 3.7 05:49:37 50° SSW 05:50:29 68° SSE 05:54:30 10° ENE
Meteor 1-16 Rocket 4.4 05:45:06 10° S 05:51:01 80° E 05:56:52 10° NNE
Cosmos 1825 Rocket 3.4 05:50:41 53° NW 05:51:23 62° W 05:55:39 10° S
STARLINK-40 3.7 05:51:14 49° SW 05:52:10 70° SSE 05:56:12 10° ENE
SJ-12 3.7 05:48:17 10° N 05:52:23 78° WNW 05:56:26 10° SSW
STARLINK-44 3.6 05:52:48 48° SW 05:53:47 72° SSE 05:57:49 10° ENE
STARLINK-37 3.6 05:54:34 48° SW 05:55:34 76° SSE 05:59:36 10° ENE
STARLINK-41 3.4 05:55:33 52° SW 05:56:21 75° SSE 06:00:11 10° ENE
SL-4 R/B 3.3 05:57:43 21° SSW 05:57:43 21° SSW 05:59:41 10° SSE
Cosmos 2154 Rocket 4.3 05:53:37 22° NW 05:57:00 39° W 06:02:38 10° SSW
STARLINK-36 3.6 05:55:59 45° SW 05:57:06 75° SSE 06:01:08 10° ENE
Cosmos 2058 Rocket 3.7 05:53:09 10° S 05:57:27 56° E 06:01:45 10° NNE
Cosmos 1697 Rocket 3.2 05:57:00 36° WNW 05:57:29 36° NW 06:02:40 10° NNE
PAYLOAD B 4.4 05:52:40 10° NNE 05:58:19 77° ESE 06:03:55 10° SSW
STARLINK-68 3.5 05:57:50 47° SW 05:58:56 82° SSE 06:02:59 10° ENE
Cosmos 1908 3.8 05:55:19 10° S 05:59:10 60° E 06:03:02 10° NNE
STARLINK-29 3.6 05:59:12 46° NNW 05:59:41 50° NNE 06:03:08 10° E
Cosmos 1680 Rocket 3.8 05:54:32 10° SSW 05:59:49 71° ESE 06:05:08 10° NNE
STARLINK-63 3.5 05:59:18 44° SW 06:00:30 81° SSE 06:04:32 10° ENE
STARLINK-52 3.7 06:00:07 44° NNW 06:00:36 48° NNE 06:04:01 10° E
NOAA 6 4.4 05:55:50 10° NNE 06:01:01 67° ESE 06:06:11 10° S
STARLINK-35 3.5 06:00:45 41° SW 06:02:03 80° SSE 06:06:05 10° ENE
STARLINK 3.4 06:01:29 44° SW 06:02:36 78° SSE 06:06:25 10° ENE
Cosmos 1371 Rocket 4.2 05:58:15 12° NNW 06:03:14 75° ENE 06:08:34 10° SSE
STARLINK-51 3.5 06:02:20 40° SW 06:03:42 82° SSE 06:07:44 10° ENE
ALOS 2.1 05:59:09 10° N 06:03:48 68° WNW 06:08:26 10° SSW
Genesis I 3.0 06:03:07 46° NW 06:04:13 84° SW 06:08:02 10° SE
STARLINK-30 3.5 06:03:55 39° SW 06:05:20 84° SSE 06:09:24 10° ENE
STARLINK-33 3.1 06:05:57 51° WSW 06:06:46 87° NNW 06:10:23 10° ENE
STARLINK-72 3.5 06:05:32 38° WSW 06:07:01 85° SSE 06:11:04 10° ENE
STARLINK-50 3.5 06:07:06 36° WSW 06:08:39 87° SSE 06:12:42 10° ENE
CZ-4B R/B 4.5 06:05:02 10° N 06:07:06 22° NNW 06:07:06 22° NNW
Cosmos 1959 Rocket 4.4 06:02:43 10° N 06:08:52 85° W 06:15:01 10° S
STARLINK-66 3.1 06:08:27 48° WSW 06:09:21 83° NNW 06:12:57 10° ENE
STARLINK-59 3.4 06:08:50 36° WSW 06:10:24 89° NNW 06:14:27 10° ENE
Lacrosse 5 3.5 06:06:09 10° SSW 06:10:43 34° SE 06:15:18 10° ENE
STARLINK-55 3.1 06:10:52 46° WSW 06:11:49 79° NNW 06:15:25 10° ENE
Cosmos 1606 Rocket 3.6 06:07:36 10° SSW 06:11:58 56° WNW 06:16:19 10° N
STARLINK-56 3.4 06:10:18 34° WSW 06:11:59 90° N 06:16:02 10° ENE
ATLAS 2AS CENTAUR R/B 3.0 06:04:21 10° SW 06:12:23 88° NW 06:20:25 10° NE
Meteor 1-11 4.2 06:06:48 10° NNW 06:12:27 88° E 06:18:06 10° S
COSMO-SKYMED 1 3.2 06:08:56 10° SSW 06:12:50 33° W 06:12:53 33° W
Cosmos 1726 Rocket 3.5 06:08:49 10° SSW 06:13:14 67° WNW 06:17:39 10° N
Starlink (trailer) 3.4 06:11:52 33° WSW 06:13:37 88° NNW 06:17:40 10° ENE
STARLINK-28 3.1 06:12:51 45° W 06:13:48 74° NNW 06:17:22 10° ENE
Cosmos 1703 3.2 06:10:52 16° NNW 06:13:58 64° W 06:17:51 10° S
STARLINK-38 3.4 06:13:29 32° WSW 06:15:17 86° NNW 06:19:21 10° ENE
Helios 1A Rocket 3.3 06:12:15 10° NNE 06:16:23 69° ESE 06:20:30 10° S
Cosmos 2227 4.5 06:13:35 23° NW 06:16:42 45° WSW 06:22:01 10° S
STARLINK-65 3.4 06:15:04 31° WSW 06:16:56 85° NNW 06:20:59 10° ENE
Cosmos 2112 Rocket 4.1 06:11:48 10° SSW 06:17:10 84° ESE 06:22:33 10° NNE
STARLINK-53 3.4 06:16:48 30° WSW 06:18:42 81° NNW 06:22:44 10° ENE
STARLINK-80 4.1 06:18:26 31° NW 06:19:36 40° N 06:23:12 10° ENE
DMSP B5D1-3 4.4 06:15:42 10° S 06:20:46 66° WSW 06:25:52 10° NNW
Lacrosse 5 rocket 2.9 06:19:50 19° NW 06:21:58 28° N 06:25:48 10° ENE
Cosmos 2366 rocket 4.0 06:15:40 10° NNW 06:22:01 72° W 06:28:19 10° S
Cosmos 2278 Rocket 4.4 06:25:20 10° N 06:29:03 17° NE 06:32:47 10° E
Cosmos 1437 4.1 06:28:19 10° N 06:31:11 36° ENE 06:34:02 10° SE
Cosmos 1624 Rocket 3.9 06:26:39 10° NNW 06:31:52 75° WSW 06:37:03 10° SSE
STARLINK-58 3.5 06:29:25 23° WSW 06:31:53 72° NNW 06:35:55 10° ENE
Cosmos 2228 3.5 06:28:16 10° SW 06:32:23 38° WNW 06:36:32 10° N
STARLINK 1028 3.9 06:30:25 10° SW 06:33:08 40° SE 06:35:56 10° ENE
STARLINK 1021 3.9 06:30:37 10° SW 06:33:21 40° SE 06:36:09 10° ENE
CZ-4B DEB 4.3 06:28:04 10° N 06:33:27 52° WNW 06:38:46 10° SW
STARLINK-62 3.5 06:31:06 22° WSW 06:33:35 69° NNW 06:37:37 10° ENE
STARLINK 1019 3.9 06:30:53 10° SW 06:33:36 40° SE 06:36:22 10° ENE
STARLINK 1012 3.9 06:31:04 10° SW 06:33:50 41° SE 06:36:37 10° ENE
STARLINK 1010 3.9 06:31:16 10° SW 06:34:02 41° SE 06:36:50 10° ENE
STARLINK 1026 3.9 06:31:24 10° SW 06:34:11 41° SE 06:36:58 10° ENE
STARLINK 1013 3.9 06:31:42 10° SW 06:34:29 41° SE 06:37:16 10° ENE
STARLINK 1009 3.9 06:31:57 10° SW 06:34:43 42° SE 06:37:30 10° ENE
STARLINK 1015 3.9 06:32:09 10° SW 06:34:56 42° SE 06:37:43 10° ENE
STARLINK 1016 3.9 06:32:23 10° SW 06:35:09 42° SE 06:37:56 10° ENE
STARLINK 1008 3.9 06:32:37 10° SW 06:35:24 42° SE 06:38:10 10° ENE
STARLINK 1025 3.8 06:33:02 10° SW 06:35:48 42° SE 06:38:36 10° ENE
STARLINK 1017 3.8 06:33:16 10° SW 06:36:03 43° SE 06:38:52 10° ENE
STARLINK 1023 3.8 06:33:29 10° SW 06:36:16 43° SE 06:39:05 10° ENE
STARLINK 1007 3.8 06:33:44 10° SW 06:36:31 43° SE 06:39:20 10° ENE
STARLINK 1057 4.5 06:33:06 10° SW 06:36:32 42° SE 06:40:00 10° ENE
STARLINK 1048 3.8 06:33:58 10° SW 06:36:45 43° SSE 06:39:34 10° ENE
STARLINK-48 4.1 06:34:52 23° WNW 06:36:51 41° N 06:40:34 10° ENE
STARLINK 1049 3.8 06:34:10 10° SW 06:36:58 43° SE 06:39:47 10° ENE
STARLINK 1051 3.8 06:34:24 10° SW 06:37:12 44° SE 06:40:00 10° ENE
Cosmos 1953 3.9 06:38:42 17° NW 06:38:42 17° NW 06:40:34 10° NNW
Meteor 2-12 Rocket 4.4 06:31:48 10° N 06:37:55 88° W 06:44:03 10° S
STARLINK 1029 4.1 06:35:23 10° SW 06:38:22 42° SE 06:41:22 10° ENE
EXPRESS MD2 2.4 06:37:26 27° WNW 06:38:40 57° N 06:40:53 10° ENE
STARLINK 1052 4.4 06:36:05 10° SW 06:39:33 44° SE 06:43:02 10° ENE
COSMOS 2455 3.3 06:34:39 11° WSW 06:40:12 42° NW 06:45:55 10° NNE
Cosmos 2322 Rocket 2.2 06:34:40 10° SSW 06:40:21 87° ESE 06:46:06 10° NNE
STARLINK 1014 3.7 06:38:03 10° SW 06:40:55 47° SE 06:43:47 10° ENE
STARLINK-60 3.2 06:39:09 24° WNW 06:41:00 64° SSW 06:44:20 10° SE
CZ-4 R/B 4.5 06:38:19 10° NE 06:41:28 20° E 06:44:35 10° SE
STARLINK-42 3.4 06:39:51 19° W 06:42:21 61° NNW 06:46:05 10° ENE
STARLINK 1068 4.3 06:39:04 10° SW 06:42:34 46° SE 06:46:04 10° ENE
Cosmos 2263 Rocket 2.8 06:42:16 13° NW 06:46:42 34° WSW 06:51:45 10° S
Cosmos 2056 Rocket 3.7 06:41:38 10° NNW 06:46:59 59° WSW 06:52:18 10° S
CZ-2C R/B 4.4 06:45:56 10° NW 06:46:37 11° NW 06:46:37 11° NW
STARLINK-64 3.5 06:45:44 17° W 06:48:33 58° NNW 06:52:18 10° ENE
STARLINK 1060 4.1 06:45:01 10° SW 06:48:33 51° SE 06:52:06 10° ENE
BREEZE-M DEB (TANK) 3.7 06:45:27 16° W 06:48:49 80° N 07:03:28 10° E
STARLINK 1030 4.0 06:48:01 10° SW 06:51:35 54° SE 06:55:09 10° ENE
STARLINK 1020 3.9 06:51:24 10° SW 06:55:01 57° SSE 06:58:39 10° ENE
STARLINK-34 3.7 06:51:41 14° W 06:55:04 57° NNW 06:59:04 10° ENE
STARLINK-24 3.7 06:53:15 13° W 06:56:44 57° NNW 07:00:42 10° ENE
STARLINK 1034 3.8 06:54:05 10° SW 06:57:41 60° SSE 07:01:18 10° ENE
STARLINK-81 3.7 06:54:36 12° W 06:58:12 58° NNW 07:02:12 10° ENE
Cosmos 2181 Rocket 4.5 06:53:05 10° SW 06:58:47 37° WNW 07:04:37 10° N
Cosmos 1844 Rocket 2.9 06:54:13 10° NNW 06:59:52 76° ENE 07:05:31 10° SSE
STARLINK-54 3.7 06:56:27 12° W 07:00:03 55° NNW 07:04:02 10° ENE
STARLINK-77 3.7 06:57:46 11° W 07:01:30 56° NNW 07:05:30 10° ENE
SMAP 3.0 06:57:19 10° N 07:01:59 77° WNW 07:06:38 10° SSW
AQUARIUS 4.1 06:58:29 10° NNE 07:03:00 80° WNW 07:07:30 10° SSW
STARLINK-25 3.7 06:59:24 11° W 07:03:12 56° NNW 07:07:11 10° ENE
STARLINK 1033 3.7 07:00:12 10° SW 07:03:49 66° SSE 07:07:27 10° ENE
STARLINK-71 3.8 07:01:16 11° W 07:05:05 53° NNW 07:09:02 10° ENE
RESURS DK-1 2.4 07:01:46 10° SSW 07:05:54 90° ENE 07:10:05 10° NNE
Cosmos 1726 3.8 07:04:17 10° W 07:06:19 14° WNW 07:08:23 10° NNW
STARLINK-79 3.8 07:02:31 10° W 07:06:28 54° NNW 07:10:26 10° ENE
STARLINK-78 3.8 07:04:12 10° W 07:08:10 53° NNW 07:12:08 10° ENE
STARLINK-57 3.8 07:06:01 10° W 07:09:57 52° NNW 07:13:55 10° ENE
Cosmos 1812 Rocket 3.5 07:07:00 10° S 07:11:22 84° W 07:15:48 10° N
STARLINK-49 3.8 07:07:30 10° W 07:11:27 52° NNW 07:15:25 10° ENE
STARLINK-27 3.8 07:09:12 10° W 07:13:08 52° NNW 07:17:06 10° ENE
STARLINK-74 3.8 07:10:52 10° W 07:14:48 51° NNW 07:18:45 10° ENE
STARLINK 1040 2.6 07:13:20 10° WSW 07:16:11 81° NNW 07:19:03 10° ENE
Cosmos-2242 4.4 07:12:04 10° SSE 07:16:15 44° E 07:20:26 10° NNE
STARLINK-39 3.9 07:12:31 10° W 07:16:28 50° NNW 07:20:24 10° ENE
FALCON 9 DEB 3.6 07:13:56 10° WNW 07:17:22 52° SW 07:20:47 10° SE
STARLINK 3.9 07:14:14 10° W 07:18:09 50° NNW 07:22:06 10° ENE
ATLAS 3B R/B 3.4 07:12:13 10° NW 07:18:15 36° WSW 07:24:26 10° S
Okean O Rocket 2.7 07:15:23 10° N 07:19:00 25° WNW 07:22:35 10° WSW
H-2A R/B 3.3 07:15:32 10° N 07:19:10 37° WNW 07:22:46 10° SW
STARLINK-69 3.9 07:16:06 10° W 07:20:00 48° NNW 07:23:56 10° ENE
SL-16 R/B 2.5 07:15:18 10° SW 07:20:42 44° NW 07:26:09 10° NNE
Okean-O 2.8 07:16:58 10° NNE 07:21:26 83° ESE 07:25:52 10° SSW
STARLINK-21 3.9 07:17:35 10° W 07:21:30 49° NNW 07:25:26 10° ENE
STARLINK-26 4.0 07:18:35 10° WNW 07:21:51 36° N 07:25:06 10° ENE
STARLINK-43 3.8 07:18:36 10° WNW 07:22:14 50° NNE 07:25:52 10° E
Cosmos 2322 4.5 07:17:09 10° S 07:22:42 59° ESE 07:28:16 10° NE
STARLINK-45 4.0 07:19:30 10° W 07:23:25 47° N 07:27:19 10° ENE
CZ-3 R/B 4.1 07:20:19 10° WSW 07:24:42 13° SW 07:27:44 10° SSW
STARLINK-70 4.0 07:21:02 10° W 07:24:56 47° NNW 07:28:51 10° ENE
Cosmos 2360 Rocket 2.2 07:22:11 10° SSW 07:27:51 79° WNW 07:33:33 10° NNE
Cosmos 2344 4.5 07:21:22 10° W 07:28:18 35° NNW 07:36:37 10° NE
